Location: A�t Lahcen
(32.8243°N, 5.4246°W)
Time: 02:00:26
(UTC+00:00)

Cosmos 2228 - Pass Details

Date: 27 January 2021
Orbit: 589 x 617 km, 82.5° (Epoch: 26 February)

Event Time Altitude Azimuth Distance (km) Brightness Sun altitude
Rises 06:44:42 0° 211° (SSW) 2,818 6.3 -7.8°
Reaches altitude 10° 06:47:11 10° 224° (SW) 1,917 5.3 -7.3°
Maximum altitude 06:50:45 26° 282° (WNW) 1,175 3.9 -6.6°
Drops below altitude 10° 06:54:19 10° 339° (NNW) 1,921 5.2 -5.8°
Sets 06:56:49 0° 352° (N) 2,825 6.2 -5.4°
